Regional Weather Roundup
Issued by NWS

Home | Current Version | Previous Version | Text Only | Print | Product List | Glossary Off
Versions: 1 2 3 4 5 6 7 8 9 10 11 12 13 14 15 16 17 18 19 20 21 22 23 24 25 26 27 28 29 30 31 32 33 34 35 36 37 38 39 40 41 42 43 44 45 46 47 48 49 50

215
ASUS43 KBIS 230410
RWRND

NORTH DAKOTA REGIONAL WEATHER ROUNDUP
NATIONAL WEATHER SERVICE BISMARCK ND
1100 PM CDT FRI JUL 22 2016

NOTE: "FAIR" INDICATES FEW OR NO CLOUDS BELOW 12,000 FEET WITH NO
SIGNIFICANT WEATHER AND/OR OBSTRUCTIONS TO VISIBILITY.


NDZ001>003-009>011-017-230500-
NORTHWEST NORTH DAKOTA

CITY           SKY/WX    TMP DP  RH WIND       PRES   REMARKS
WILLISTON      MOCLDY    74  67  78 E7        29.83F
MINOT          CLOUDY    77  64  64 E14       29.91F
MINOT AFB      CLOUDY    73  65  75 E13       29.90F
$$

NDZ018>021-031>035-040>046-230500-
SOUTHWEST NORTH DAKOTA

CITY           SKY/WX    TMP DP  RH WIND       PRES   REMARKS
BISMARCK       CLOUDY    70  65  84 SE18      30.02F
DICKINSON      LGT RAIN  66  62  87 E23G39    29.90F
GARRISON         N/A     70  67  90 SE17G29   29.86F
HETTINGER ARPT CLOUDY    70  63  78 E22G29    29.96S
$$

NDZ004>008-012>016-024-026-027-054-230500-
NORTHEAST NORTH DAKOTA

CITY           SKY/WX    TMP DP  RH WIND       PRES   REMARKS
GRAND FORKS    CLOUDY    75  67  76 E6        29.98S
GRND FRKS AFB  CLOUDY    74  67  80 S2        30.01R
DEVILS LAKE    CLOUDY    75  67  76 E12       30.02R
$$

NDZ022-023-025-028>030-036>039-047>053-230500-
SOUTHEAST NORTH DAKOTA

CITY           SKY/WX    TMP DP  RH WIND       PRES   REMARKS
FARGO          CLOUDY    75  67  76 NE6       29.99R
JAMESTOWN      LGT RAIN  76  70  82 SW14      30.04S
$$





USA.gov is the U.S. government's official web portal to all federal, state and local government web resources and services.